FW2979 Weather Reports


time (UTC)temp
F
wind
direction
speed
knots
gust
knots
rain 1hr
in
rain 24hr
in
rain mn
in
humidity
%
barometer
mb
20260505185848 47 255 7.0 8.7 0.00 0.00 0.00 56 813.5
20260505185738 46 255 7.0 7.8 0.00 0.00 0.00 56 813.5
20260505185627 46 257 8.7 8.7 0.00 0.00 0.00 58 813.5
20260505185517 46 259 8.7 9.6 0.00 0.00 0.00 57 813.5
20260505185407 46 257 7.8 9.6 0.00 0.00 0.00 57 813.5
20260505185257 46 254 7.0 8.7 0.00 0.00 0.00 57 813.5
20260505185147 46 260 7.0 8.7 0.00 0.00 0.00 57 813.5
20260505185036 46 260 7.8 8.7 0.00 0.00 0.00 57 813.4
20260505184817 46 256 7.8 8.7 0.00 0.00 0.00 56 813.5
20260505184707 46 254 7.8 8.7 0.00 0.00 0.00 56 813.4
20260505184557 46 256 8.7 9.6 0.00 0.00 0.00 56 813.5
20260505184447 46 251 7.8 9.6 0.00 0.00 0.00 56 813.5
20260505184337 46 253 7.0 7.8 0.00 0.00 0.00 56 813.5
20260505184227 46 250 7.0 7.8 0.00 0.00 0.00 57 813.4
20260505184007 46 257 5.2 7.0 0.00 0.00 0.00 60 813.5
20260505183857 46 242 6.1 7.0 0.00 0.00 0.00 58 813.5
20260505183746 46 241 7.0 7.8 0.00 0.00 0.00 56 813.4
20260505183637 46 247 7.0 7.8 0.00 0.00 0.00 57 813.5
20260505183527 46 239 6.1 7.0 0.00 0.00 0.00 56 813.5
20260505183417 46 250 7.0 7.0 0.00 0.00 0.00 56 813.5
20260505183307 46 239 6.1 7.0 0.00 0.00 0.00 56 813.5
20260505183157 46 240 7.0 7.8 0.00 0.00 0.00 56 813.5
20260505183047 46 233 6.1 7.0 0.00 0.00 0.00 56 813.5
20260505182827 46 233 5.2 6.1 0.00 0.00 0.00 56 813.5
20260505182716 46 233 6.1 7.0 0.00 0.00 0.00 58 813.5
20260505182606 46 223 5.2 6.1 0.00 0.00 0.00 58 813.5
20260505182456 46 228 5.2 5.2 0.00 0.00 0.00 60 813.4
20260505182237 46 226 6.1 7.0 0.00 0.00 0.00 60 813.4
20260505182126 47 222 6.1 7.0 0.00 0.00 0.00 61 813.4
20260505182017 47 213 6.1 7.0 0.00 0.00 0.00 61 813.5
20260505181906 47 227 5.2 6.1 0.00 0.00 0.00 62 813.4
20260505181647 47 263 6.1 7.8 0.00 0.00 0.00 56 813.4
20260505181537 48 252 5.2 7.0 0.00 0.00 0.00 56 813.4
20260505181427 48 267 5.2 6.1 0.00 0.00 0.00 56 813.5
20260505181317 47 284 7.0 8.7 0.00 0.00 0.00 56 813.4
20260505180949 47 281 6.1 7.0 0.00 0.00 0.00 57 813.4
20260505180617 47 256 4.3 6.1 0.00 0.00 0.00 61 813.4
20260505180507 47 222 3.5 4.3 0.00 0.00 0.00 61 813.5
20260505180356 47 243 3.5 6.1 0.00 0.00 0.00 59 813.4
20260505180249 47 278 3.5 4.3 0.00 0.00 0.00 58 813.4
20260505180137 47 303 3.5 4.3 0.00 0.00 0.00 58 813.4
20260505180027 46 301 5.2 7.0 0.00 0.00 0.00 58 813.4
20260505175920 46 291 5.2 6.1 0.00 0.00 0.00 59 813.4
20260505175806 45 289 5.2 6.1 0.00 0.00 0.00 60 813.4
20260505175656 45 289 4.3 5.2 0.00 0.00 0.00 61 813.4
20260505175437 45 202 4.3 5.2 0.00 0.00 0.00 70 813.4
20260505175326 45 205 5.2 6.1 0.00 0.00 0.00 70 813.4
20260505175217 45 221 6.1 7.0 0.00 0.00 0.00 70 813.4
20260505175106 45 234 6.1 7.0 0.00 0.00 0.00 68 813.4
20260505174956 45 233 5.2 6.1 0.00 0.00 0.00 64 813.4
20260505174847 45 197 4.3 5.2 0.00 0.00 0.00 63 813.4
20260505174738 45 185 4.3 5.2 0.00 0.00 0.00 64 813.4
20260505174627 45 183 3.5 5.2 0.00 0.00 0.00 65 813.3
20260505174517 45 198 3.5 4.3 0.00 0.00 0.00 64 813.3
20260505174406 45 199 4.3 5.2 0.00 0.00 0.00 65 813.3
20260505174257 45 208 4.3 5.2 0.00 0.00 0.00 66 813.3
20260505174147 44 190 5.2 6.1 0.00 0.00 0.00 65 813.4
20260505173817 44 207 5.2 5.2 0.00 0.00 0.00 67 813.4
20260505173707 44 200 5.2 6.1 0.00 0.00 0.00 68 813.4
20260505173556 44 219 5.2 6.1 0.00 0.00 0.00 67 813.4
20260505173447 44 228 5.2 7.0 0.00 0.00 0.00 68 813.4
20260505173337 44 225 5.2 6.1 0.00 0.00 0.00 67 813.4
20260505173227 44 233 5.2 7.0 0.00 0.00 0.00 68 813.4
20260505173116 44 238 6.1 7.8 0.00 0.00 0.00 68 813.4
20260505173006 44 243 5.2 7.0 0.00 0.00 0.00 65 813.3
20260505172857 44 238 6.1 7.0 0.00 0.00 0.00 66 813.4
20260505172747 44 262 6.1 7.8 0.00 0.00 0.00 66 813.4
20260505172637 44 267 6.1 7.8 0.00 0.00 0.00 69 813.4
20260505172307 44 243 5.2 7.0 0.00 0.00 0.00 66 813.3
20260505172157 44 254 7.8 10.4 0.00 0.00 0.00 66 813.3
20260505172046 45 253 8.7 11.3 0.00 0.00 0.00 72 813.3
20260505171936 45 247 5.2 7.0 0.00 0.00 0.00 72 813.3
20260505171827 44 247 5.2 7.0 0.00 0.00 0.00 69 813.4
20260505171717 44 251 4.3 5.2 0.00 0.00 0.00 70 813.4
20260505171457 44 209 4.3 12.2 0.00 0.00 0.00 68 813.4
20260505171347 44 185 5.2 10.4 0.00 0.00 0.00 66 813.4
20260505171236 44 153 8.7 13.9 0.00 0.00 0.00 66 813.4
20260505171126 44 143 15.6 21.7 0.00 0.00 0.00 74 813.4
20260505171017 44 141 19.1 79.1 0.01 0.00 0.00 77 813.4
20260505170907 44 139 11.3 18.2 0.01 0.00 0.00 76 813.5
20260505170756 44 87 14.8 18.2 0.01 0.00 0.00 79 813.7
20260505170647 44 66 16.5 20.0 0.00 0.00 0.00 80 813.5
20260505170537 44 71 18.2 21.7 0.00 0.00 0.00 84 813.4
20260505170427 45 81 13.9 18.2 0.00 0.00 0.00 82 813.5
20260505170317 45 99 10.4 13.9 0.00 0.00 0.00 80 813.5
20260505170206 45 134 9.6 12.2 0.00 0.00 0.00 78 813.5
20260505170057 45 142 10.4 13.0 0.00 0.00 0.00 78 813.4
20260505165946 45 146 12.2 13.9 0.00 0.00 0.00 80 813.4
20260505165837 45 143 12.2 13.9 0.00 0.00 0.00 82 813.4
20260505165726 46 139 10.4 13.0 0.00 0.00 0.00 79 813.4
20260505165617 47 143 8.7 10.4 0.00 0.00 0.00 79 813.4
20260505165507 47 187 2.6 5.2 0.00 0.00 0.00 78 813.4
20260505165357 47 270 2.6 3.5 0.00 0.00 0.00 80 813.4
20260505165247 47 274 3.5 5.2 0.00 0.00 0.00 80 813.4
20260505165026 46 244 4.3 6.1 0.00 0.00 0.00 79 813.4
20260505164916 46 238 4.3 6.1 0.00 0.00 0.00 78 813.3
20260505164807 46 237 5.2 7.0 0.00 0.00 0.00 84 813.4
20260505164657 46 240 5.2 6.1 0.00 0.00 0.00 84 813.4
20260505164546 46 238 5.2 6.1 0.00 0.00 0.00 87 813.4
20260505164437 46 247 5.2 6.1 0.00 0.00 0.00 86 813.3
20260505164327 46 245 5.2 7.0 0.00 0.00 0.00 83 813.3
20260505164216 46 244 6.1 7.8 0.00 0.00 0.00 87 813.3
20260505164106 46 242 6.1 7.8 0.00 0.00 0.00 87 813.3
20260505163956 46 242 5.2 7.0 0.00 0.00 0.00 87 813.3
20260505163847 46 244 6.1 7.0 0.00 0.00 0.00 86 813.3
20260505163736 46 247 6.1 8.7 0.00 0.00 0.00 88 813.3
20260505163627 46 249 5.2 7.8 0.00 0.00 0.00 89 813.3
20260505163517 46 255 5.2 7.0 0.00 0.00 0.00 88 813.3
20260505163407 46 261 6.1 8.7 0.00 0.00 0.00 90 813.3
20260505163146 46 254 6.1 8.7 0.00 0.00 0.00 87 813.3
20260505163036 46 246 7.0 8.7 0.00 0.00 0.00 87 813.3
20260505162926 46 236 6.1 7.8 0.00 0.00 0.00 86 813.1
20260505162818 46 241 6.1 8.7 0.00 0.00 0.00 90 813.1
20260505162707 46 259 6.1 7.8 0.00 0.00 0.00 90 813.3
20260505162557 46 270 5.2 7.8 0.00 0.00 0.00 90 813.3
20260505162447 46 243 5.2 7.8 0.00 0.00 0.00 85 813.3
20260505162343 46 223 5.2 7.0 0.00 0.00 0.00 84 813.3
20260505162229 46 230 5.2 7.8 0.00 0.00 0.00 88 813.3
20260505162117 46 241 5.2 7.0 0.00 0.00 0.00 89 813.3
20260505162006 46 248 5.2 7.0 0.00 0.00 0.00 89 813.3
20260505161856 46 244 6.1 8.7 0.00 0.00 0.00 91 813.3
20260505161746 46 250 7.0 9.6 0.00 0.00 0.00 90 813.3
20260505161636 46 245 7.0 8.7 0.00 0.00 0.00 90 813.3
20260505161526 45 243 6.1 8.7 0.00 0.00 0.00 88 813.3
20260505161417 46 234 7.0 10.4 0.00 0.00 0.00 90 813.3
20260505161306 46 253 7.8 10.4 0.00 0.00 0.00 91 813.3
20260505161156 46 248 7.8 10.4 0.00 0.00 0.00 91 813.3
20260505161046 46 245 7.8 10.4 0.00 0.00 0.00 90 813.1
20260505160937 46 242 7.0 11.3 0.00 0.00 0.00 89 813.1
20260505160606 46 258 5.2 9.6 0.00 0.00 0.00 89 813.3
20260505160456 46 246 6.1 8.7 0.00 0.00 0.00 90 813.3
20260505160347 45 246 7.0 9.6 0.00 0.00 0.00 88 813.1
20260505160236 45 249 7.0 9.6 0.00 0.00 0.00 89 813.3
20260505160126 45 249 7.0 8.7 0.00 0.00 0.00 90 813.3
20260505153326 46 141 0.9 3.5 0.00 0.00 0.00 65 813.4
20260505153216 46 123 3.5 4.3 0.00 0.00 0.00 66 813.3
20260505153107 45 152 4.3 6.1 0.00 0.00 0.00 66 813.3
20260505153012 45 138 3.5 5.2 0.00 0.00 0.00 67 813.3
20260505152743 46 173 1.7 2.6 0.00 0.00 0.00 67 813.4
20260505152629 46 206 1.7 2.6 0.00 0.00 0.00 68 813.4
20260505152517 46 211 3.5 4.3 0.00 0.00 0.00 67 813.4
20260505152410 46 243 3.5 6.1 0.00 0.00 0.00 62 813.4
20260505152257 46 264 4.3 8.7 0.00 0.00 0.00 60 813.5
20260505152147 46 273 3.5 5.2 0.00 0.00 0.00 60 813.5
20260505152037 46 296 4.3 7.0 0.00 0.00 0.00 59 813.7
20260505151926 46 309 6.1 87.8 0.00 0.00 0.00 58 813.8
20260505151817 46 338 37.4 128.6 0.01 0.00 0.00 58 813.8
20260505151556 46 2 11.3 21.7 0.00 0.00 0.00 68 813.7
20260505151350 47 248 19.1 123.4 0.00 0.00 0.00 77 813.8
20260505151227 47 261 4.3 7.0 0.00 0.00 0.00 75 813.8
20260505151118 47 192 7.8 13.0 0.00 0.00 0.00 76 813.8
20260505150856 47 177 7.0 10.4 0.00 0.00 0.00 76 813.8
20260505150746 47 173 14.8 86.9 0.00 0.00 0.00 76 813.7
20260505150417 47 238 3.5 7.0 0.00 0.00 0.00 77 813.5
20260505150156 47 260 5.2 8.7 0.00 0.00 0.00 76 813.4
20260505140339 52 229 4.3 6.1 0.00 0.00 0.00 64 813.7
20260505140226 53 259 5.2 10.4 0.00 0.00 0.00 69 813.7
20260505140116 53 274 7.0 10.4 0.00 0.00 0.00 68 813.7
20260505130256 49 205 3.5 6.1 0.00 0.00 0.00 71 814.1
20260505130146 49 257 2.6 7.0 0.00 0.00 0.00 71 814.2
20260505124856 52 239 3.5 10.4 0.00 0.00 0.00 62 813.9
20260505124746 52 294 8.7 13.9 0.00 0.00 0.00 63 813.9
20260505124636 53 320 8.7 12.2 0.00 0.00 0.00 61 813.9
20260505124527 53 313 7.8 11.3 0.00 0.00 0.00 62 814.2
20260505124417 53 330 6.1 8.7 0.00 0.00 0.00 59 814.2
20260505124307 53 346 5.2 10.4 0.00 0.00 0.00 54 814.2
20260505124156 53 350 3.5 7.0 0.00 0.00 0.00 48 814.2
20260505124046 53 18 3.5 7.0 0.00 0.00 0.00 42 814.2
20260505123828 52 80 5.2 8.7 0.00 0.00 0.00 45 814.2
20260505123717 52 28 4.3 7.0 0.00 0.00 0.00 45 814.2
20260505123606 52 22 5.2 10.4 0.00 0.00 0.00 40 814.2
20260505123456 52 40 8.7 11.3 0.00 0.00 0.00 42 814.2
20260505123347 51 47 7.8 11.3 0.00 0.00 0.00 45 814.2
20260505123236 51 17 8.7 13.0 0.00 0.00 0.00 43 814.2
20260505123126 51 8 10.4 16.5 0.00 0.00 0.00 43 814.1
20260505123016 52 18 8.7 15.6 0.00 0.00 0.00 43 814.1
20260505122906 52 32 9.6 16.5 0.00 0.00 0.00 46 813.9
20260505122756 51 14 7.0 9.6 0.00 0.00 0.00 44 814.1
20260505122538 51 354 7.8 13.9 0.00 0.00 0.00 45 814.1
20260505122426 52 347 13.0 19.1 0.00 0.00 0.00 44 813.8
20260505122318 52 26 10.4 18.2 0.00 0.00 0.00 43 814.1
20260505122056 52 51 7.8 14.8 0.00 0.00 0.00 42 814.1
20260505121836 52 21 5.2 10.4 0.00 0.00 0.00 42 814.1
20260505121616 51 10 8.7 14.8 0.00 0.00 0.00 42 813.9
20260505121356 51 64 7.8 11.3 0.00 0.00 0.00 44 814.2
20260505121246 51 42 7.8 13.9 0.00 0.00 0.00 46 814.2
20260505121144 51 49 13.0 15.6 0.00 0.00 0.00 44 813.9
20260505121027 51 48 13.0 17.4 0.00 0.00 0.00 44 813.8
20260505120806 51 25 13.0 20.9 0.00 0.00 0.00 44 813.9
20260505120546 50 11 3.5 7.0 0.00 0.00 0.00 45 814.2
20260505120437 50 20 8.7 14.8 0.00 0.00 0.00 45 814.2
20260505120326 51 39 14.8 18.2 0.00 0.00 0.00 46 814.1
20260505120217 51 46 14.8 17.4 0.00 0.00 0.00 46 813.9
20260505115956 51 44 10.4 14.8 0.00 0.00 0.00 46 814.2
20260505115847 51 43 8.7 12.2 0.00 0.00 0.00 46 814.2
20260505115741 51 34 8.7 13.9 0.00 0.00 0.00 47 814.2
20260505115407 51 34 8.7 14.8 0.00 0.00 0.00 45 814.2
20260505115256 51 43 8.7 11.3 0.00 0.00 0.00 44 814.2
20260505115146 51 66 10.4 16.5 0.00 0.00 0.00 44 814.2
20260505114926 51 85 13.9 19.1 0.00 0.00 0.00 46 814.1
20260505114707 51 51 15.6 19.1 0.00 0.00 0.00 45 814.1
20260505114556 51 45 18.2 22.6 0.00 0.00 0.00 44 814.1
20260505114447 51 8 9.6 17.4 0.00 0.00 0.00 46 814.2
20260505114336 51 2 12.2 18.2 0.00 0.00 0.00 44 814.2
20260505114226 51 30 13.0 15.6 0.00 0.00 0.00 44 814.2
20260505114116 51 37 8.7 18.2 0.00 0.00 0.00 43 814.2
20260505113856 51 6 10.4 14.8 0.00 0.00 0.00 45 814.2
20260505113746 50 32 9.6 13.0 0.00 0.00 0.00 45 814.2
20260505113636 50 59 9.6 13.9 0.00 0.00 0.00 46 814.2
20260505113527 50 70 7.8 14.8 0.00 0.00 0.00 43 814.3
20260505113416 50 57 11.3 13.9 0.00 0.00 0.00 46 814.2
20260505113307 50 49 13.0 18.2 0.00 0.00 0.00 45 814.2
20260505113156 50 54 13.0 17.4 0.00 0.00 0.00 46 814.2
20260505113047 50 41 12.2 15.6 0.00 0.00 0.00 46 814.2
20260505112936 50 41 13.9 22.6 0.00 0.00 0.00 46 814.2
20260505112827 51 55 13.9 18.2 0.00 0.00 0.00 46 814.2
20260505112716 51 51 14.8 20.9 0.00 0.00 0.00 48 814.2
20260505112606 51 40 10.4 14.8 0.00 0.00 0.00 47 814.2
20260505112348 51 36 11.3 18.2 0.00 0.00 0.00 47 814.2
20260505112237 51 24 13.9 20.0 0.00 0.00 0.00 46 814.1
20260505112126 51 17 8.7 15.6 0.00 0.00 0.00 46 814.2
20260505112017 51 16 10.4 19.1 0.00 0.00 0.00 46 814.2
20260505111906 50 42 12.2 16.5 0.00 0.00 0.00 47 814.2
20260505111756 50 32 10.4 18.2 0.00 0.00 0.00 46 814.2
20260505111647 50 51 6.1 9.6 0.00 0.00 0.00 46 814.2
20260505111427 50 54 5.2 11.3 0.00 0.00 0.00 42 814.2
20260505111318 50 50 8.7 14.8 0.00 0.00 0.00 44 814.2
20260505111207 50 28 13.0 18.2 0.00 0.00 0.00 44 814.2
20260505111056 50 36 13.9 18.2 0.00 0.00 0.00 44 814.2
20260505110946 50 23 12.2 17.4 0.00 0.00 0.00 44 814.2
20260505110836 50 4 13.0 20.9 0.00 0.00 0.00 44 814.2
20260505110726 50 19 10.4 17.4 0.00 0.00 0.00 44 814.2
20260505110616 50 51 14.8 22.6 0.00 0.00 0.00 43 814.2
20260505110356 50 52 13.9 19.1 0.00 0.00 0.00 44 814.2
20260505110246 51 55 12.2 18.2 0.00 0.00 0.00 45 814.2
20260505110137 51 20 12.2 17.4 0.00 0.00 0.00 46 814.2
20260505102157 49 53 5.2 8.7 0.00 0.00 0.00 48 814.6
20260505102046 50 48 8.7 13.9 0.00 0.00 0.00 48 814.3
20260505101936 50 68 12.2 18.2 0.00 0.00 0.00 48 814.3
20260505101826 49 81 7.0 10.4 0.00 0.00 0.00 52 814.6
20260505101717 49 16 4.3 10.4 0.00 0.00 0.00 48 814.6
20260505101606 49 336 7.0 13.9 0.00 0.00 0.00 48 814.3
20260505101456 49 20 6.1 12.2 0.00 0.00 0.00 48 814.6
20260505101346 49 62 11.3 13.9 0.00 0.00 0.00 46 814.5
20260505101241 49 49 16.5 23.5 0.00 0.00 0.00 45 814.3
20260505101126 49 58 13.9 20.0 0.00 0.00 0.00 46 814.3
20260505101016 49 38 10.4 18.2 0.00 0.00 0.00 47 814.6
20260505100906 49 40 13.0 19.1 0.00 0.00 0.00 47 814.3
20260505100756 49 46 15.6 21.7 0.00 0.00 0.00 47 814.3
20260505100536 49 40 7.8 17.4 0.00 0.00 0.00 48 814.2
20260505100426 48 35 8.7 13.9 0.00 0.00 0.00 48 814.5
20260505100317 48 50 14.8 20.0 0.00 0.00 0.00 47 814.3
20260505100207 48 58 13.0 20.9 0.00 0.00 0.00 47 814.5
20260505100056 48 69 12.2 14.8 0.00 0.00 0.00 47 814.3
20260505095946 49 55 18.2 23.5 0.00 0.00 0.00 47 814.3
20260505095837 49 67 15.6 20.0 0.00 0.00 0.00 45 814.2
20260505095616 48 50 13.9 19.1 0.00 0.00 0.00 44 814.6
20260505095506 49 57 16.5 20.9 0.00 0.00 0.00 45 814.6
20260505095356 49 65 16.5 20.9 0.00 0.00 0.00 45 814.3
20260505095246 48 64 14.8 20.0 0.00 0.00 0.00 45 814.6
20260505095136 48 63 15.6 19.1 0.00 0.00 0.00 44 814.5
20260505095026 49 55 18.2 26.1 0.00 0.00 0.00 45 814.2
20260505094806 49 61 11.3 15.6 0.00 0.00 0.00 48 814.6
20260505094656 49 66 13.0 18.2 0.00 0.00 0.00 47 814.6
20260505094547 49 62 13.9 20.0 0.00 0.00 0.00 46 814.6
20260505094436 49 61 15.6 26.1 0.00 0.00 0.00 46 814.3
20260505094326 49 58 13.0 20.9 0.00 0.00 0.00 46 814.5
20260505094216 49 61 13.9 19.1 0.00 0.00 0.00 46 814.6
20260505094106 49 54 19.1 24.3 0.00 0.00 0.00 44 814.3
20260505093956 49 43 12.2 20.9 0.00 0.00 0.00 48 814.3
20260505093847 49 43 15.6 21.7 0.00 0.00 0.00 45 814.5
20260505093406 49 55 18.2 22.6 0.00 0.00 0.00 44 814.3
20260505093300 49 65 14.8 20.0 0.00 0.00 0.00 46 814.6
20260505093146 49 74 15.6 26.1 0.00 0.00 0.00 46 814.5
20260505093036 49 56 12.2 16.5 0.00 0.00 0.00 48 814.6
20260505092926 49 37 7.8 14.8 0.00 0.00 0.00 51 814.6
20260505092707 49 63 10.4 19.1 0.00 0.00 0.00 51 814.6
20260505092556 49 42 6.1 9.6 0.00 0.00 0.00 53 814.6
20260505092446 48 73 7.0 13.0 0.00 0.00 0.00 53 814.6
20260505092336 48 69 8.7 13.0 0.00 0.00 0.00 51 814.6
20260505092226 48 36 10.4 14.8 0.00 0.00 0.00 51 814.6
20260505092116 48 53 13.0 16.5 0.00 0.00 0.00 52 814.3
20260505092006 48 50 15.6 21.7 0.00 0.00 0.00 52 814.3
20260505091856 47 55 8.7 17.4 0.00 0.00 0.00 51 814.6
20260505091636 48 36 17.4 21.7 0.00 0.00 0.00 51 814.3
20260505091526 48 33 18.2 24.3 0.00 0.00 0.00 50 814.3
20260505091416 48 23 10.4 20.0 0.00 0.00 0.00 51 814.6
20260505091306 48 30 10.4 13.9 0.00 0.00 0.00 49 814.6
20260505091156 48 33 16.5 24.3 0.00 0.00 0.00 48 814.6
20260505091046 48 42 12.2 21.7 0.00 0.00 0.00 51 814.6
20260505090717 48 80 10.4 13.9 0.00 0.00 0.00 50 814.6
20260505090606 48 61 14.8 20.0 0.00 0.00 0.00 52 814.3
20260505090456 48 39 12.2 20.9 0.00 0.00 0.00 52 814.6
20260505090346 48 11 8.7 12.2 0.00 0.00 0.00 52 814.6
20260505090236 48 31 10.4 13.9 0.00 0.00 0.00 52 814.6
20260505090016 47 67 13.0 20.0 0.00 0.00 0.00 50 814.6
20260505085906 47 49 17.4 21.7 0.00 0.00 0.00 52 814.3
20260505085426 47 53 15.6 22.6 0.00 0.00 0.00 53 814.6
20260505085316 47 54 16.5 20.9 0.00 0.00 0.00 54 814.6
20260505085208 47 49 10.4 17.4 0.00 0.00 0.00 53 814.6
20260505085056 47 41 12.2 17.4 0.00 0.00 0.00 51 814.6
20260505084946 47 50 17.4 22.6 0.00 0.00 0.00 51 814.6
20260505084837 48 41 17.4 22.6 0.00 0.00 0.00 50 814.6
20260505084726 49 52 15.6 20.9 0.00 0.00 0.00 52 814.6
20260505084616 49 43 9.6 13.9 0.00 0.00 0.00 52 814.7
20260505084356 49 46 6.1 8.7 0.00 0.00 0.00 53 814.7
20260505084136 48 45 7.8 11.3 0.00 0.00 0.00 52 814.7
20260505083915 48 355 3.5 6.1 0.00 0.00 0.00 49 814.7
20260505083806 48 41 7.0 10.4 0.00 0.00 0.00 49 814.7
20260505083656 48 101 7.0 13.9 0.00 0.00 0.00 48 814.7
20260505083435 47 62 13.0 19.1 0.00 0.00 0.00 50 814.6
20260505083326 47 52 13.0 17.4 0.00 0.00 0.00 54 814.6
20260505083216 47 66 13.9 17.4 0.00 0.00 0.00 52 814.7
20260505083106 48 52 12.2 15.6 0.00 0.00 0.00 51 814.7
20260505082955 48 34 11.3 18.2 0.00 0.00 0.00 52 814.6
20260505082846 48 53 13.0 17.4 0.00 0.00 0.00 52 814.6
20260505082736 48 42 8.7 24.3 0.00 0.00 0.00 54 814.5
20260505082626 48 92 7.8 9.6 0.00 0.00 0.00 55 814.7
20260505082516 47 38 8.7 11.3 0.00 0.00 0.00 55 814.7
20260505082406 47 41 7.0 10.4 0.00 0.00 0.00 54 814.6
20260505082256 47 43 9.6 13.0 0.00 0.00 0.00 53 814.7
20260505082146 47 50 13.9 20.0 0.00 0.00 0.00 53 814.7
20260505082035 47 15 7.0 10.4 0.00 0.00 0.00 52 814.7
20260505081815 47 95 13.0 16.5 0.00 0.00 0.00 52 814.6
20260505081706 47 76 12.2 15.6 0.00 0.00 0.00 54 814.6
20260505081556 47 61 10.4 15.6 0.00 0.00 0.00 53 814.7
20260505081446 47 56 13.9 19.1 0.00 0.00 0.00 53 814.6
20260505081336 47 55 14.8 19.1 0.00 0.00 0.00 53 814.6
20260505081226 47 48 14.8 20.0 0.00 0.00 0.00 53 814.6
20260505081115 47 54 15.6 21.7 0.00 0.00 0.00 53 814.6
20260505081006 47 44 14.8 20.9 0.00 0.00 0.00 53 814.6
20260505080855 47 56 13.0 18.2 0.00 0.00 0.00 55 814.6
20260505080746 47 48 13.0 17.4 0.00 0.00 0.00 55 814.6
20260505080635 47 40 11.3 16.5 0.00 0.00 0.00 54 814.6
20260505080525 47 46 13.9 16.5 0.00 0.00 0.00 52 814.6
20260505080415 47 45 13.0 20.0 0.00 0.00 0.00 54 814.6
20260505080156 47 55 14.8 19.1 0.00 0.00 0.00 54 814.6
20260505080046 47 53 14.8 18.2 0.00 0.00 0.00 54 814.6
20260505075936 47 50 11.3 16.5 0.00 0.00 0.00 53 814.6
20260505075825 47 47 11.3 19.1 0.00 0.00 0.00 55 814.6
20260505075716 47 46 11.3 16.5 0.00 0.00 0.00 55 814.6
20260505075455 47 39 12.2 20.0 0.00 0.00 0.00 56 814.6
20260505075345 47 25 7.8 13.9 0.00 0.00 0.00 55 814.6
20260505075236 47 41 12.2 16.5 0.00 0.00 0.00 54 814.6
20260505075126 47 42 13.9 20.0 0.00 0.00 0.00 55 814.6
20260505075016 47 46 12.2 18.2 0.00 0.00 0.00 54 814.6
20260505074646 47 40 13.0 18.2 0.00 0.00 0.00 56 814.6
20260505074536 47 28 7.8 13.0 0.00 0.00 0.00 55 814.7
20260505073836 47 46 13.0 14.8 0.00 0.00 0.00 56 814.6
20260505073726 46 27 11.3 18.2 0.00 0.00 0.00 56 814.6
20260505073246 47 34 11.3 14.8 0.00 0.00 0.00 54 814.6
20260505073136 47 52 14.8 21.7 0.00 0.00 0.00 54 814.6
20260505073026 46 61 11.3 15.6 0.00 0.00 0.00 55 814.6
20260505072915 46 38 11.3 18.2 0.00 0.00 0.00 56 814.3
20260505072806 46 30 12.2 18.2 0.00 0.00 0.00 56 814.5
20260505072655 46 42 13.9 18.2 0.00 0.00 0.00 56 814.5
20260505072545 46 48 11.3 16.5 0.00 0.00 0.00 57 814.6
20260505072436 46 34 13.0 18.2 0.00 0.00 0.00 55 814.6
20260505072326 47 34 12.2 17.4 0.00 0.00 0.00 55 814.6
20260505072216 46 47 13.9 21.7 0.00 0.00 0.00 55 814.5
20260505072106 46 41 11.3 16.5 0.00 0.00 0.00 56 814.3
20260505071956 46 54 13.0 17.4 0.00 0.00 0.00 56 814.6
20260505071845 46 27 8.7 13.9 0.00 0.00 0.00 58 814.6
20260505071736 46 20 10.4 14.8 0.00 0.00 0.00 58 814.6
20260505071406 46 20 12.2 17.4 0.00 0.00 0.00 57 814.3
20260505071255 46 16 10.4 15.6 0.00 0.00 0.00 57 814.6
20260505071146 46 8 12.2 17.4 0.00 0.00 0.00 59 814.5
20260505071035 46 17 9.6 14.8 0.00 0.00 0.00 57 814.5
20260505070816 46 38 10.4 14.8 0.00 0.00 0.00 59 814.3
20260505070706 46 18 9.6 16.5 0.00 0.00 0.00 59 814.3
20260505070556 46 14 12.2 15.6 0.00 0.00 0.00 56 814.3
20260505070446 46 16 10.4 18.2 0.00 0.00 0.00 59 814.3
20260505070226 45 12 13.0 17.4 0.00 0.00 0.00 58 814.3
20260505070005 45 45 13.9 19.1 0.00 0.00 0.00 58 814.3
20260505065856 45 21 9.6 17.4 0.00 0.00 0.00 58 814.3
20260505065746 45 22 12.2 17.4 0.00 0.00 0.00 59 814.3
20260505065636 45 21 10.4 18.2 0.00 0.00 0.00 59 814.3
20260505065526 45 21 11.3 16.5 0.00 0.00 0.00 58 814.3
20260505065156 46 16 7.8 15.6 0.00 0.00 0.00 58 814.3
20260505065045 46 36 12.2 17.4 0.00 0.00 0.00 56 814.3
20260505064936 46 47 13.0 20.0 0.00 0.00 0.00 57 814.2
20260505064825 45 37 10.4 16.5 0.00 0.00 0.00 59 814.2
20260505064606 45 16 11.3 19.1 0.00 0.00 0.00 58 814.3
20260505064456 45 23 10.4 18.2 0.00 0.00 0.00 58 814.2
20260505064345 45 36 13.0 18.2 0.00 0.00 0.00 57 814.3
20260505064235 45 28 10.4 17.4 0.00 0.00 0.00 58 814.2
20260505064126 45 32 12.2 16.5 0.00 0.00 0.00 58 814.2
20260505064016 45 12 11.3 16.5 0.00 0.00 0.00 58 814.2
20260505063906 45 18 10.4 15.6 0.00 0.00 0.00 59 814.2
20260505063756 45 14 10.4 16.5 0.00 0.00 0.00 58 814.2
20260505063646 45 25 12.2 19.1 0.00 0.00 0.00 58 814.2
20260505063536 45 47 10.4 18.2 0.00 0.00 0.00 58 814.2
20260505063425 45 42 10.4 14.8 0.00 0.00 0.00 59 814.2
20260505063316 45 20 10.4 16.5 0.00 0.00 0.00 59 814.2
20260505063206 45 21 10.4 17.4 0.00 0.00 0.00 59 814.2
20260505063056 45 14 8.7 15.6 0.00 0.00 0.00 60 814.2
20260505062946 45 24 9.6 15.6 0.00 0.00 0.00 59 814.2
20260505062835 45 18 11.3 19.1 0.00 0.00 0.00 59 814.2
20260505062726 45 13 13.0 18.2 0.00 0.00 0.00 58 814.2
20260505062616 45 41 13.0 18.2 0.00 0.00 0.00 58 814.1
20260505062506 45 36 12.2 17.4 0.00 0.00 0.00 58 814.2
20260505062355 45 36 13.9 20.0 0.00 0.00 0.00 59 814.2
20260505062136 45 29 12.2 16.5 0.00 0.00 0.00 59 814.2
20260505062025 45 29 13.0 18.2 0.00 0.00 0.00 58 814.2
20260505061915 45 31 14.8 20.9 0.00 0.00 0.00 58 814.2
20260505061806 45 48 12.2 20.0 0.00 0.00 0.00 59 814.2
20260505061655 44 46 11.3 14.8 0.00 0.00 0.00 60 814.2
20260505061436 45 20 13.0 20.9 0.00 0.00 0.00 59 814.2
20260505061326 45 20 10.4 18.2 0.00 0.00 0.00 58 814.2
20260505061216 45 48 13.9 18.2 0.00 0.00 0.00 58 814.2
20260505061106 45 34 13.0 20.0 0.00 0.00 0.00 59 814.1
20260505060956 44 32 11.3 17.4 0.00 0.00 0.00 59 814.2
20260505060845 44 37 12.2 17.4 0.00 0.00 0.00 59 814.2
20260505060735 44 24 11.3 15.6 0.00 0.00 0.00 59 814.2
20260505060626 44 16 10.4 16.5 0.00 0.00 0.00 60 813.9
20260505060515 44 22 11.3 18.2 0.00 0.00 0.00 60 813.9
20260505060406 44 8 10.4 15.6 0.00 0.00 0.00 59 814.2
20260505060255 44 7 14.8 18.2 0.00 0.00 0.00 59 813.9
20260505060036 44 14 11.3 18.2 0.00 0.00 0.00 59 813.9
20260505055925 44 16 11.3 18.2 0.00 0.00 0.00 59 814.2
20260505055706 44 24 12.2 20.0 0.00 0.00 0.00 60 813.9
20260505055556 44 14 12.2 20.0 0.00 0.00 0.00 60 814.1
20260505055445 44 23 13.9 20.9 0.00 0.00 0.00 60 813.9
20260505055336 44 19 12.2 19.1 0.00 0.00 0.00 60 813.9
20260505055225 44 20 9.6 16.5 0.00 0.00 0.00 60 813.9
20260505055116 44 22 12.2 20.9 0.00 0.00 0.00 59 813.8
20260505055005 44 25 11.3 19.1 0.00 0.00 0.00 60 814.1
20260505054855 44 21 13.0 18.2 0.00 0.00 0.00 59 813.8
20260505054745 44 12 15.6 23.5 0.00 0.00 0.00 59 813.8
20260505054636 44 8 17.4 25.2 0.00 0.00 0.00 59 813.8
20260505054526 44 11 17.4 23.5 0.00 0.00 0.00 60 813.8
20260505054416 44 9 16.5 21.7 0.00 0.00 0.00 60 813.9
20260505054305 44 9 18.2 23.5 0.00 0.00 0.00 60 813.8
20260505054155 44 11 18.2 22.6 0.00 0.00 0.00 60 813.8
20260505054045 44 11 14.8 20.9 0.00 0.00 0.00 61 813.8
20260505053935 44 10 16.5 21.7 0.00 0.00 0.00 60 813.8
20260505053826 44 8 18.2 25.2 0.00 0.00 0.00 60 813.8
20260505053715 44 12 13.9 20.0 0.00 0.00 0.00 61 813.8
20260505053455 44 11 16.5 25.2 0.00 0.00 0.00 60 813.8
20260505053346 44 10 16.5 20.0 0.00 0.00 0.00 60 813.8
20260505053126 43 8 13.0 18.2 0.00 0.00 0.00 61 813.8
20260505053015 43 6 16.5 20.9 0.00 0.00 0.00 61 813.8
20260505052905 43 12 15.6 20.0 0.00 0.00 0.00 62 813.8
20260505052755 43 8 15.6 20.0 0.00 0.00 0.00 61 813.8
20260505052646 43 5 15.6 20.9 0.00 0.00 0.00 62 813.8
20260505052536 43 5 16.5 23.5 0.00 0.00 0.00 61 813.8
20260505052425 43 2 18.2 22.6 0.00 0.00 0.00 61 813.8
20260505052315 43 0 18.2 22.6 0.00 0.00 0.00 61 813.8
20260505052055 43 3 17.4 21.7 0.00 0.00 0.00 60 813.7
20260505051945 43 11 18.2 23.5 0.00 0.00 0.00 61 813.8
20260505051615 44 7 19.1 25.2 0.00 0.00 0.00 60 813.5
20260505051505 44 4 20.0 30.4 0.00 0.00 0.00 60 813.8
20260505051245 43 15 17.4 23.5 0.00 0.00 0.00 61 813.8
20260505051135 43 11 17.4 22.6 0.00 0.00 0.00 61 813.8
20260505051026 43 2 13.9 20.0 0.00 0.00 0.00 61 813.8
20260505050915 43 10 18.2 22.6 0.00 0.00 0.00 61 813.7
20260505050805 43 4 18.2 22.6 0.00 0.00 0.00 62 813.7
20260505050655 42 3 17.4 20.9 0.00 0.00 0.00 62 813.8
20260505050435 42 5 16.5 23.5 0.00 0.00 0.00 62 813.8
20260505050325 43 1 18.2 22.6 0.00 0.00 0.00 62 813.5
20260505050215 43 3 16.5 20.9 0.00 0.00 0.00 61 813.8
20260505050106 43 8 18.2 21.7 0.00 0.00 0.00 61 813.7
20260505041756 42 3 20.0 26.9 0.00 0.00 0.00 63 813.3
20260505041646 42 6 16.5 20.0 0.00 0.00 0.00 63 813.4
20260505041536 42 4 15.6 19.1 0.00 0.00 0.00 62 813.4
20260505041425 42 2 16.5 21.7 0.00 0.00 0.00 62 813.4
20260505041315 42 357 18.2 25.2 0.00 0.00 0.00 62 813.4
20260505041056 42 0 20.0 23.5 0.00 0.00 0.00 62 813.3
20260505040946 42 2 20.9 25.2 0.00 0.00 0.00 62 813.3
20260505040835 42 4 18.2 23.5 0.00 0.00 0.00 63 813.3
20260505040725 42 0 17.4 22.6 0.00 0.00 0.00 63 813.3
20260505040616 42 9 18.2 24.3 0.00 0.00 0.00 63 813.3
20260505040506 42 358 18.2 23.5 0.00 0.00 0.00 63 813.3
20260505040246 42 4 17.4 23.5 0.00 0.00 0.00 62 813.3
20260505040136 42 5 20.9 25.2 0.00 0.00 0.00 63 813.1
20260505040026 42 4 16.5 22.6 0.00 0.00 0.00 63 813.3
20260505035915 42 7 19.1 24.3 0.00 0.00 0.00 64 813.3
20260505035805 42 4 18.2 23.5 0.00 0.00 0.00 64 813.3
20260505035546 42 5 18.2 21.7 0.00 0.00 0.00 64 813.3
20260505035436 42 4 17.4 23.5 0.00 0.00 0.00 64 813.3
20260505035325 42 6 18.2 23.5 0.00 0.00 0.00 64 813.3
20260505035105 41 5 21.7 26.1 0.00 0.00 0.00 64 813.0
20260505034956 41 4 20.0 25.2 0.00 0.00 0.00 64 813.0
20260505034626 41 1 20.0 24.3 0.00 0.00 0.00 65 813.1
20260505034406 41 1 19.1 23.5 0.00 0.00 0.00 66 813.1
20260505034256 41 3 18.2 21.7 0.00 0.00 0.00 66 813.1
20260505034035 41 3 16.5 20.9 0.00 0.00 0.00 66 813.1
20260505033925 41 5 18.2 22.6 0.00 0.00 0.00 66 813.1
20260505033705 41 3 19.1 23.5 0.00 0.00 0.00 66 813.0
20260505033556 41 3 19.1 24.3 0.00 0.00 0.00 66 813.0
20260505033445 41 7 18.2 22.6 0.00 0.00 0.00 65 813.1
20260505033336 41 2 18.2 24.3 0.00 0.00 0.00 66 813.1
20260505033225 41 2 20.0 24.3 0.00 0.00 0.00 66 813.1
20260505033116 41 3 20.0 25.2 0.00 0.00 0.00 66 813.3
20260505033005 41 6 18.2 23.5 0.00 0.00 0.00 66 813.0
20260505032745 41 3 19.1 24.3 0.00 0.00 0.00 66 813.1
20260505032635 41 0 17.4 21.7 0.00 0.00 0.00 66 813.1
20260505032525 41 0 16.5 23.5 0.00 0.00 0.00 66 813.0
20260505032156 41 2 20.0 26.9 0.00 0.00 0.00 66 813.0
20260505032045 41 3 19.1 26.1 0.00 0.00 0.00 66 813.3
20260505031936 41 8 17.4 23.5 0.00 0.00 0.00 66 813.1
20260505031715 41 10 19.1 23.5 0.00 0.00 0.00 66 813.0
20260505031455 41 6 18.2 23.5 0.00 0.00 0.00 66 813.1
20260505031126 41 357 19.1 25.2 0.00 0.00 0.00 66 813.0
20260505030905 41 8 19.1 24.3 0.00 0.00 0.00 66 813.0
20260505030755 41 5 18.2 22.6 0.00 0.00 0.00 66 813.0
20260505030645 41 8 18.2 24.3 0.00 0.00 0.00 66 813.0
20260505030535 41 9 16.5 26.1 0.00 0.00 0.00 66 813.0
20260505030425 41 2 17.4 21.7 0.00 0.00 0.00 66 813.0
20260505030316 41 1 17.4 22.6 0.00 0.00 0.00 66 813.0
20260505030206 41 1 17.4 22.6 0.00 0.00 0.00 66 813.0
20260505030056 41 6 19.1 26.1 0.00 0.00 0.00 66 813.0
20260505025946 41 357 20.0 26.1 0.00 0.00 0.00 66 813.0
20260505025836 41 10 19.1 23.5 0.00 0.00 0.00 66 813.0
20260505025725 41 1 18.2 24.3 0.00 0.00 0.00 66 813.0
20260505025615 41 1 19.1 25.2 0.00 0.00 0.00 66 813.1
20260505025505 41 355 19.1 25.2 0.00 0.00 0.00 66 813.0
20260505025355 41 6 20.0 25.2 0.00 0.00 0.00 66 813.0
20260505025245 41 6 20.0 25.2 0.00 0.00 0.00 66 813.0
20260505025026 41 7 20.0 26.1 0.00 0.00 0.00 66 813.0
20260505024916 41 5 20.9 26.9 0.00 0.00 0.00 66 813.0
20260505024806 41 0 20.0 25.2 0.00 0.00 0.00 66 813.0
20260505024545 41 0 19.1 24.3 0.00 0.00 0.00 67 813.0
20260505024435 41 0 19.1 25.2 0.00 0.00 0.00 67 813.0
20260505024325 41 0 18.2 22.6 0.00 0.00 0.00 67 813.0
20260505024215 41 1 20.0 26.9 0.00 0.00 0.00 67 813.0
20260505023845 41 1 18.2 26.1 0.00 0.00 0.00 68 813.0
20260505023736 41 2 18.2 24.3 0.00 0.00 0.00 67 812.9
20260505023625 41 4 18.2 23.5 0.00 0.00 0.00 67 813.0
20260505023516 41 358 20.0 25.2 0.00 0.00 0.00 68 813.0
20260505023405 41 0 18.2 22.6 0.00 0.00 0.00 68 813.0
20260505023255 41 0 17.4 20.9 0.00 0.00 0.00 68 813.0
20260505023146 41 0 18.2 23.5 0.00 0.00 0.00 68 813.0
20260505023036 41 0 17.4 22.6 0.00 0.00 0.00 68 813.0
20260505022925 41 2 18.2 23.5 0.00 0.00 0.00 68 813.0
20260505022815 41 354 19.1 24.3 0.00 0.00 0.00 68 813.0
20260505022335 41 358 18.2 23.5 0.00 0.00 0.00 68 813.0
20260505022225 41 357 17.4 23.5 0.00 0.00 0.00 69 813.0
20260505022115 41 358 20.0 25.2 0.00 0.00 0.00 69 813.0
20260505022006 40 357 18.2 23.5 0.00 0.00 0.00 69 813.0
20260505021856 40 354 18.2 24.3 0.00 0.00 0.00 69 813.0
20260505021745 40 356 19.1 23.5 0.00 0.00 0.00 69 813.0
20260505021635 40 358 18.2 23.5 0.00 0.00 0.00 69 813.1
20260505021525 40 358 19.1 23.5 0.00 0.00 0.00 69 813.0
20260505021415 40 357 20.0 26.1 0.00 0.00 0.00 69 813.1
20260505021305 41 355 19.1 23.5 0.00 0.00 0.00 69 813.0
20260505021156 41 358 18.2 25.2 0.00 0.00 0.00 69 813.0
20260505021045 41 353 20.0 26.9 0.00 0.00 0.00 69 813.0
20260505020936 41 351 23.5 31.3 0.00 0.00 0.00 69 813.0
20260505020826 40 352 20.9 26.9 0.00 0.00 0.00 70 813.0
20260505020716 40 351 20.0 23.5 0.00 0.00 0.00 70 813.0
20260505020606 40 1 19.1 26.9 0.00 0.00 0.00 70 813.0
20260505020455 40 7 16.5 22.6 0.00 0.00 0.00 70 813.0
20260505020345 40 9 17.4 21.7 0.00 0.00 0.00 69 813.0
20260505020235 40 358 17.4 21.7 0.00 0.00 0.00 69 813.0
20260505020125 40 344 21.7 30.4 0.00 0.00 0.00 70 813.0
20260505015905 40 5 17.4 21.7 0.00 0.00 0.00 70 813.1
20260505015756 40 1 20.0 25.2 0.00 0.00 0.00 70 813.0
20260505015645 40 358 18.2 23.5 0.00 0.00 0.00 70 813.0
20260505015535 40 354 17.4 22.6 0.00 0.00 0.00 70 813.1
20260505015427 40 353 18.2 24.3 0.00 0.00 0.00 70 813.1
20260505015315 40 4 15.6 20.9 0.00 0.00 0.00 70 813.1
20260505015055 40 4 20.9 26.9 0.00 0.00 0.00 70 813.0
20260505014945 40 7 17.4 20.9 0.00 0.00 0.00 69 813.0
20260505014835 41 358 17.4 20.9 0.00 0.00 0.00 69 813.0
20260505014725 41 350 19.1 22.6 0.00 0.00 0.00 69 813.0
20260505014615 41 353 20.0 24.3 0.00 0.00 0.00 69 812.9
20260505014505 40 3 19.1 24.3 0.00 0.00 0.00 69 813.0
20260505014355 40 10 20.0 23.5 0.00 0.00 0.00 70 813.0
20260505014245 40 14 18.2 24.3 0.00 0.00 0.00 70 813.0
20260505014135 40 15 18.2 24.3 0.00 0.00 0.00 70 813.0
20260505014025 40 8 18.2 22.6 0.00 0.00 0.00 70 813.0
20260505013915 41 12 15.6 20.9 0.00 0.00 0.00 69 813.1
20260505013655 41 0 19.1 26.1 0.00 0.00 0.00 69 813.1
20260505013545 41 2 19.1 25.2 0.00 0.00 0.00 69 813.0
20260505013435 41 358 18.2 23.5 0.00 0.00 0.00 69 813.0
20260505013325 41 358 20.0 25.2 0.00 0.00 0.00 69 813.0
20260505013215 41 5 20.0 25.2 0.00 0.00 0.00 70 813.0
20260505013105 41 8 20.0 26.9 0.00 0.00 0.00 70 813.0
20260505012955 41 4 18.2 24.3 0.00 0.00 0.00 69 813.0
20260505012845 41 2 17.4 23.5 0.00 0.00 0.00 69 813.1
20260505012735 41 2 20.0 25.2 0.00 0.00 0.00 69 813.0
20260505012625 41 8 18.2 21.7 0.00 0.00 0.00 69 813.0
20260505012515 41 11 19.1 26.1 0.00 0.00 0.00 69 813.0
20260505012405 41 13 19.1 23.5 0.00 0.00 0.00 70 813.0
20260505012255 41 8 16.5 20.0 0.00 0.00 0.00 70 813.0
20260505012145 41 6 17.4 22.6 0.00 0.00 0.00 70 813.1
20260505012035 41 8 19.1 24.3 0.00 0.00 0.00 70 813.1
20260505011925 41 9 17.4 21.7 0.00 0.00 0.00 70 813.1
20260505011815 41 10 18.2 22.6 0.00 0.00 0.00 70 813.0
20260505011705 41 6 17.4 20.9 0.00 0.00 0.00 70 813.1
20260505011555 41 8 16.5 21.7 0.00 0.00 0.00 69 813.0
20260505011445 41 9 18.2 23.5 0.00 0.00 0.00 68 813.0
20260505011335 41 14 18.2 24.3 0.00 0.00 0.00 68 813.0
20260505011225 41 18 14.8 22.6 0.00 0.00 0.00 69 813.0
20260505011115 41 14 16.5 23.5 0.00 0.00 0.00 69 813.0
20260505010855 41 12 16.5 22.6 0.00 0.00 0.00 68 813.0
20260505010635 42 17 14.8 22.6 0.00 0.00 0.00 67 813.0
20260505010526 42 22 13.9 20.9 0.00 0.00 0.00 67 813.0
20260505010415 42 30 16.5 23.5 0.00 0.00 0.00 67 813.0
20260505010305 42 28 14.8 22.6 0.00 0.00 0.00 66 813.0
20260505010045 42 23 15.6 24.3 0.00 0.00 0.00 67 813.1
20260505005935 41 21 14.8 21.7 0.00 0.00 0.00 67 813.0
20260505005825 41 24 14.8 21.7 0.00 0.00 0.00 67 813.1
20260505005715 42 31 14.8 20.9 0.00 0.00 0.00 67 813.1
20260505005605 42 27 14.8 21.7 0.00 0.00 0.00 67 813.0
20260505005455 41 23 14.8 21.7 0.00 0.00 0.00 67 813.0
20260505005345 41 29 14.8 21.7 0.00 0.00 0.00 67 813.1
20260505005125 41 30 14.8 20.0 0.00 0.00 0.00 67 813.1
20260505005015 41 32 16.5 21.7 0.00 0.00 0.00 67 813.0
20260505004905 41 32 15.6 21.7 0.00 0.00 0.00 67 813.0
20260505004755 41 31 15.6 22.6 0.00 0.00 0.00 67 813.0
20260505004645 42 33 15.6 20.9 0.00 0.00 0.00 66 813.0
20260505004535 42 35 16.5 20.0 0.00 0.00 0.00 66 813.1
20260505004425 42 36 17.4 24.3 0.00 0.00 0.00 66 813.1
20260505004315 42 40 18.2 22.6 0.00 0.00 0.00 66 813.1
20260505003945 42 35 18.2 23.5 0.00 0.00 0.00 65 813.0
20260505003835 42 34 18.2 25.2 0.00 0.00 0.00 64 813.0
20260505003505 42 40 20.0 25.2 0.00 0.00 0.00 63 813.0
20260505003355 42 40 20.9 24.3 0.00 0.00 0.00 63 813.0
20260505003245 43 40 20.9 24.3 0.00 0.00 0.00 63 813.0
20260505003135 43 42 20.9 23.5 0.00 0.00 0.00 63 813.0
20260505002915 42 41 21.7 26.9 0.00 0.00 0.00 63 813.0
20260505002805 42 43 20.9 25.2 0.00 0.00 0.00 63 813.0
20260505002656 42 41 22.6 26.9 0.00 0.00 0.00 63 813.0
20260505002546 42 41 20.9 26.1 0.00 0.00 0.00 63 813.0
20260505002435 42 44 20.0 23.5 0.00 0.00 0.00 63 813.0
20260505002325 43 41 20.0 25.2 0.00 0.00 0.00 63 813.0
20260505002215 42 42 20.0 24.3 0.00 0.00 0.00 63 813.0
20260505002105 42 42 21.7 26.9 0.00 0.00 0.00 63 813.0
20260505001955 42 41 20.0 24.3 0.00 0.00 0.00 63 813.0
20260505001735 43 41 20.9 25.2 0.00 0.00 0.00 62 813.0
20260505001515 43 41 21.7 25.2 0.00 0.00 0.00 62 813.0
20260505001405 43 40 22.6 26.1 0.00 0.00 0.00 62 813.0
20260505001255 43 41 21.7 26.1 0.00 0.00 0.00 62 813.0
20260505001145 43 42 21.7 26.1 0.00 0.00 0.00 62 813.0
20260505001035 43 40 21.7 26.1 0.00 0.00 0.00 62 813.0
20260505000925 43 41 21.7 26.9 0.00 0.00 0.00 62 813.0
20260505000815 43 40 21.7 25.2 0.00 0.00 0.00 62 813.0
20260505000705 43 41 23.5 26.1 0.00 0.00 0.00 62 813.0
20260505000555 43 42 21.7 25.2 0.00 0.00 0.00 62 813.0
20260505000445 43 41 23.5 26.1 0.00 0.00 0.00 62 813.0
20260505000335 43 43 23.5 26.9 0.00 0.00 0.00 62 813.0
20260505000226 43 44 22.6 26.1 0.00 0.00 0.00 62 813.0
20260505000116 43 43 23.5 27.8 0.00 0.00 0.00 62 813.0
20260504235635 43 39 22.6 26.1 0.00 0.00 0.00 62 813.0
20260504235525 43 41 22.6 25.2 0.00 0.00 0.00 62 813.0
20260504235415 43 42 21.7 24.3 0.00 0.00 0.00 62 813.0
20260504235305 43 40 22.6 26.9 0.00 0.00 0.00 62 813.0
20260504235155 43 40 21.7 25.2 0.00 0.00 0.00 62 813.0
20260504235045 43 40 22.6 25.2 0.00 0.00 0.00 62 813.0
20260504234935 43 42 23.5 26.9 0.00 0.00 0.00 62 813.0
20260504234715 43 40 19.1 25.2 0.00 0.00 0.00 62 813.0
20260504234605 43 36 17.4 22.6 0.00 0.00 0.00 61 813.1
20260504234455 43 37 18.2 24.3 0.00 0.00 0.00 61 813.1
20260504234345 43 40 22.6 27.8 0.00 0.00 0.00 62 813.1
20260504234235 43 41 20.9 24.3 0.00 0.00 0.00 62 813.1
20260504234125 43 35 19.1 25.2 0.00 0.00 0.00 62 813.1
20260504234015 43 42 20.9 26.1 0.00 0.00 0.00 62 813.1
20260504233905 43 39 19.1 22.6 0.00 0.00 0.00 62 813.1
20260504233645 43 41 19.1 24.3 0.00 0.00 0.00 61 813.3
20260504233535 43 36 20.9 26.1 0.00 0.00 0.00 61 813.3
20260504233425 43 41 21.7 26.1 0.00 0.00 0.00 62 813.1
20260504233315 43 40 21.7 26.9 0.00 0.00 0.00 62 813.3
20260504233206 43 39 19.1 24.3 0.00 0.00 0.00 61 813.3
20260504233055 43 39 20.0 25.2 0.00 0.00 0.00 61 813.3
20260504232945 43 38 18.2 23.5 0.00 0.00 0.00 61 813.3
20260504232835 43 40 20.9 26.1 0.00 0.00 0.00 61 813.3
20260504232725 43 40 21.7 26.9 0.00 0.00 0.00 61 813.1
20260504232615 43 39 20.9 26.1 0.00 0.00 0.00 61 813.3
20260504232355 43 40 21.7 26.1 0.00 0.00 0.00 61 813.3
20260504232245 43 34 20.0 25.2 0.00 0.00 0.00 61 813.3
20260504232136 43 39 20.0 24.3 0.00 0.00 0.00 61 813.3
20260504232025 43 41 23.5 26.9 0.00 0.00 0.00 61 813.3
20260504231915 43 39 22.6 27.8 0.00 0.00 0.00 61 813.0
20260504231545 43 42 20.9 26.1 0.00 0.00 0.00 61 813.3
20260504231435 43 40 20.9 24.3 0.00 0.00 0.00 61 813.3
20260504231325 43 37 22.6 26.1 0.00 0.00 0.00 62 813.0
20260504231215 43 32 20.0 26.9 0.00 0.00 0.00 62 813.0
20260504231105 43 35 19.1 23.5 0.00 0.00 0.00 61 813.3
20260504230955 43 36 20.0 25.2 0.00 0.00 0.00 61 813.3
20260504230735 43 39 19.1 25.2 0.00 0.00 0.00 61 813.4
20260504230625 43 35 17.4 22.6 0.00 0.00 0.00 61 813.4
20260504230515 43 37 19.1 23.5 0.00 0.00 0.00 61 813.4
20260504230405 43 39 20.9 24.3 0.00 0.00 0.00 61 813.3
20260504230255 43 39 18.2 23.5 0.00 0.00 0.00 61 813.3
20260504230145 43 35 17.4 23.5 0.00 0.00 0.00 61 813.3
20260504230035 43 38 21.7 26.9 0.00 0.00 0.00 61 813.4
20260504225925 43 33 18.2 24.3 0.00 0.00 0.00 61 813.4
20260504225815 43 36 20.0 24.3 0.00 0.00 0.00 61 813.3
20260504225705 43 38 19.1 25.2 0.00 0.00 0.00 61 813.4
20260504225445 43 36 18.2 22.6 0.00 0.00 0.00 61 813.4
20260504225335 43 38 19.1 25.2 0.00 0.00 0.00 61 813.3
20260504225225 43 39 21.7 25.2 0.00 0.00 0.00 62 813.4
20260504225115 43 43 20.0 25.2 0.00 0.00 0.00 62 813.4
20260504225005 42 35 20.0 26.9 0.00 0.00 0.00 62 813.3
20260504224745 43 22 13.9 20.0 0.00 0.00 0.00 62 813.4
20260504224635 43 21 12.2 20.0 0.00 0.00 0.00 62 813.4
20260504224525 43 21 13.0 20.9 0.00 0.00 0.00 61 813.4
20260504224415 43 22 13.9 21.7 0.00 0.00 0.00 61 813.4
20260504224305 43 28 16.5 22.6 0.00 0.00 0.00 61 813.4
20260504224155 43 35 18.2 23.5 0.00 0.00 0.00 61 813.4
20260504224045 43 34 17.4 21.7 0.00 0.00 0.00 61 813.4
20260504223935 43 35 18.2 23.5 0.00 0.00 0.00 61 813.4
20260504223825 43 37 17.4 20.0 0.00 0.00 0.00 61 813.4
20260504223715 43 34 17.4 20.9 0.00 0.00 0.00 61 813.4
20260504223605 43 40 17.4 20.9 0.00 0.00 0.00 61 813.4
20260504223455 43 34 17.4 21.7 0.00 0.00 0.00 61 813.5
20260504223345 43 30 14.8 21.7 0.00 0.00 0.00 61 813.5
20260504223235 43 38 18.2 21.7 0.00 0.00 0.00 61 813.5
20260504223125 43 39 19.1 21.7 0.00 0.00 0.00 61 813.5
20260504223015 43 41 20.0 22.6 0.00 0.00 0.00 61 813.5
20260504222905 43 41 19.1 21.7 0.00 0.00 0.00 62 813.5
20260504222755 43 40 19.1 22.6 0.00 0.00 0.00 62 813.5
20260504222645 42 40 18.2 22.6 0.00 0.00 0.00 62 813.5
20260504222535 43 34 13.9 20.0 0.00 0.00 0.00 62 813.5
20260504222425 43 32 16.5 21.7 0.00 0.00 0.00 62 813.4
20260504222315 42 34 15.6 20.0 0.00 0.00 0.00 62 813.5
20260504222205 42 40 16.5 20.0 0.00 0.00 0.00 62 813.5
20260504221945 42 33 14.8 20.0 0.00 0.00 0.00 62 813.8
20260504221835 42 31 14.8 20.0 0.00 0.00 0.00 62 813.7
20260504221725 42 31 14.8 20.0 0.00 0.00 0.00 62 813.7
20260504221615 42 22 10.4 18.2 0.00 0.00 0.00 62 813.7
20260504221505 42 24 13.0 20.0 0.00 0.00 0.00 62 813.7
20260504221356 42 32 14.8 18.2 0.00 0.00 0.00 62 813.7
20260504221245 42 34 14.8 20.0 0.00 0.00 0.00 62 813.7
20260504221135 43 32 14.8 18.2 0.00 0.00 0.00 62 813.8
20260504221025 43 37 15.6 20.0 0.00 0.00 0.00 61 813.7
20260504220806 43 39 15.6 19.1 0.00 0.00 0.00 61 813.8
20260504220655 43 37 17.4 20.9 0.00 0.00 0.00 61 813.5
20260504220545 43 38 17.4 20.9 0.00 0.00 0.00 61 813.5
20260504220215 43 40 17.4 20.9 0.00 0.00 0.00 62 813.7
20260504220105 43 39 16.5 20.9 0.00 0.00 0.00 61 813.7
20260504215955 43 37 15.6 19.1 0.00 0.00 0.00 61 813.7
20260504215735 43 37 18.2 22.6 0.00 0.00 0.00 61 813.5
20260504215625 43 36 16.5 20.9 0.00 0.00 0.00 61 813.5
20260504215515 43 39 18.2 21.7 0.00 0.00 0.00 60 813.7
20260504215405 43 40 18.2 21.7 0.00 0.00 0.00 60 813.7
20260504215255 43 41 18.2 21.7 0.00 0.00 0.00 60 813.5
20260504215035 43 42 18.2 22.6 0.00 0.00 0.00 60 813.5
20260504214815 43 42 20.0 22.6 0.00 0.00 0.00 60 813.4
20260504214555 43 43 19.1 22.6 0.00 0.00 0.00 60 813.7
20260504214445 43 41 19.1 21.7 0.00 0.00 0.00 60 813.5
20260504214335 43 40 19.1 22.6 0.00 0.00 0.00 61 813.5
20260504214115 43 44 18.2 20.9 0.00 0.00 0.00 60 813.8
20260504214005 43 44 17.4 20.0 0.00 0.00 0.00 60 813.5
20260504213855 43 43 18.2 20.9 0.00 0.00 0.00 60 813.7
20260504213745 43 43 19.1 21.7 0.00 0.00 0.00 60 813.5
20260504213415 43 42 18.2 20.0 0.00 0.00 0.00 60 813.8
20260504213306 43 41 18.2 20.9 0.00 0.00 0.00 60 813.5
20260504213155 43 41 19.1 20.9 0.00 0.00 0.00 60 813.5
20260504212935 43 40 19.1 22.6 0.00 0.00 0.00 60 813.7
20260504212825 43 45 16.5 19.1 0.00 0.00 0.00 60 813.8
20260504212715 43 41 20.0 21.7 0.00 0.00 0.00 60 813.7
20260504212605 43 42 20.0 22.6 0.00 0.00 0.00 60 813.7
20260504212455 43 45 19.1 21.7 0.00 0.00 0.00 60 813.7
20260504212345 43 45 19.1 22.6 0.00 0.00 0.00 59 813.5
20260504212235 43 42 20.9 22.6 0.00 0.00 0.00 59 813.7
20260504212125 43 41 21.7 23.5 0.00 0.00 0.00 59 813.7
20260504211905 43 44 21.7 24.3 0.00 0.00 0.00 60 813.5
20260504211755 43 43 20.9 23.5 0.00 0.00 0.00 60 813.5
20260504211645 43 41 20.0 22.6 0.00 0.00 0.00 60 813.5
20260504211535 43 43 20.0 23.5 0.00 0.00 0.00 60 813.5
20260504211425 43 45 19.1 22.6 0.00 0.00 0.00 60 813.5
20260504211205 43 47 19.1 21.7 0.00 0.00 0.00 60 813.7
20260504211055 43 46 20.0 22.6 0.00 0.00 0.00 60 813.5
20260504210835 43 43 19.1 22.6 0.00 0.00 0.00 60 813.7
20260504210725 43 42 18.2 20.9 0.00 0.00 0.00 60 813.5
20260504210615 43 43 19.1 21.7 0.00 0.00 0.00 60 813.4
20260504210505 43 43 19.1 21.7 0.00 0.00 0.00 60 813.5
20260504210355 43 45 19.1 21.7 0.00 0.00 0.00 60 813.5
20260504210135 43 52 18.2 20.0 0.00 0.00 0.00 60 813.5
20260504210025 43 51 18.2 20.9 0.00 0.00 0.00 60 813.4
20260504205915 43 46 19.1 21.7 0.00 0.00 0.00 60 813.4
20260504205805 43 50 18.2 20.9 0.00 0.00 0.00 60 813.5
20260504205545 43 52 20.9 23.5 0.00 0.00 0.00 60 813.4
20260504205435 43 53 20.0 23.5 0.00 0.00 0.00 60 813.4
20260504205325 43 51 20.9 23.5 0.00 0.00 0.00 60 813.4
20260504205215 43 50 20.9 23.5 0.00 0.00 0.00 60 813.4
20260504205105 43 51 20.0 22.6 0.00 0.00 0.00 61 813.4
20260504204955 43 51 20.9 23.5 0.00 0.00 0.00 61 813.4
20260504204845 43 52 20.9 23.5 0.00 0.00 0.00 61 813.4
20260504204735 43 53 19.1 23.5 0.00 0.00 0.00 60 813.4
20260504204625 43 48 20.0 23.5 0.00 0.00 0.00 60 813.4
20260504204515 43 57 19.1 23.5 0.00 0.00 0.00 60 813.4
20260504204255 43 48 21.7 24.3 0.00 0.00 0.00 60 813.4
20260504204145 43 52 22.6 25.2 0.00 0.00 0.00 60 813.3
20260504204035 43 53 20.0 22.6 0.00 0.00 0.00 60 813.4
20260504203925 43 54 21.7 24.3 0.00 0.00 0.00 60 813.3
20260504203705 43 53 19.1 22.6 0.00 0.00 0.00 60 813.4
20260504203555 43 51 20.0 22.6 0.00 0.00 0.00 60 813.4
20260504203445 43 58 18.2 21.7 0.00 0.00 0.00 60 813.4
20260504203335 43 56 20.0 23.5 0.00 0.00 0.00 60 813.4
20260504203115 43 56 20.9 24.3 0.00 0.00 0.00 60 813.4
20260504202745 43 55 19.1 22.6 0.00 0.00 0.00 61 813.4
20260504202635 43 55 18.2 20.9 0.00 0.00 0.00 60 813.4
20260504202525 43 53 20.0 22.6 0.00 0.00 0.00 60 813.4
20260504202415 43 56 20.0 22.6 0.00 0.00 0.00 60 813.4
20260504202305 43 62 18.2 22.6 0.00 0.00 0.00 59 813.4
20260504202045 43 53 23.5 26.1 0.00 0.00 0.00 60 813.4
20260504201935 43 49 21.7 25.2 0.00 0.00 0.00 60 813.4
20260504201825 43 56 20.0 24.3 0.00 0.00 0.00 59 813.4
20260504201715 43 56 20.9 25.2 0.00 0.00 0.00 60 813.4
20260504201605 43 54 21.7 24.3 0.00 0.00 0.00 60 813.4
20260504201455 43 52 20.9 25.2 0.00 0.00 0.00 60 813.4
20260504201345 43 56 20.9 24.3 0.00 0.00 0.00 60 813.4
20260504201235 43 54 20.0 24.3 0.00 0.00 0.00 60 813.4
20260504201015 43 54 20.0 24.3 0.00 0.00 0.00 60 813.4
20260504200755 43 56 20.0 21.7 0.00 0.00 0.00 59 813.3
20260504200646 43 59 20.0 22.6 0.00 0.00 0.00 59 813.4
20260504200425 44 54 21.7 24.3 0.00 0.00 0.00 59 813.3
20260504200315 44 55 21.7 26.1 0.00 0.00 0.00 59 813.4
20260504200205 44 54 19.1 24.3 0.00 0.00 0.00 58 813.3
20260504195945 44 58 22.6 25.2 0.00 0.00 0.00 58 813.3
20260504195615 44 54 21.7 27.8 0.00 0.00 0.00 58 813.4
20260504195506 44 57 20.9 26.1 0.00 0.00 0.00 58 813.3
20260504195355 44 52 23.5 27.8 0.00 0.00 0.00 58 813.3
20260504195245 44 51 24.3 28.7 0.00 0.00 0.00 59 813.3
20260504195135 44 52 20.9 26.1 0.00 0.00 0.00 58 813.3
20260504195025 44 53 21.7 25.2 0.00 0.00 0.00 58 813.3
20260504194915 44 52 22.6 26.9 0.00 0.00 0.00 58 813.3
20260504194807 44 51 23.5 28.7 0.00 0.00 0.00 59 813.3
20260504194655 44 48 22.6 26.1 0.00 0.00 0.00 58 813.3
20260504194545 44 51 20.9 24.3 0.00 0.00 0.00 59 813.4
20260504194435 43 53 21.7 28.7 0.00 0.00 0.00 58 813.3
20260504194325 44 53 20.9 23.5 0.00 0.00 0.00 58 813.4
20260504194215 44 56 20.0 22.6 0.00 0.00 0.00 57 813.4
20260504193956 44 55 22.6 26.9 0.00 0.00 0.00 58 813.1
20260504193845 44 54 21.7 26.9 0.00 0.00 0.00 57 813.1
20260504193735 44 57 20.0 22.6 0.00 0.00 0.00 57 813.4
20260504193625 44 56 20.9 24.3 0.00 0.00 0.00 57 813.4
20260504193515 44 57 22.6 26.9 0.00 0.00 0.00 58 813.3
20260504193405 44 59 21.7 26.1 0.00 0.00 0.00 57 813.3
20260504193255 44 55 23.5 26.9 0.00 0.00 0.00 57 813.4
20260504193145 44 53 21.7 25.2 0.00 0.00 0.00 57 813.4
20260504193036 44 53 21.7 25.2 0.00 0.00 0.00 57 813.4
20260504192925 44 55 21.7 26.9 0.00 0.00 0.00 57 813.4
20260504192815 44 52 23.5 27.8 0.00 0.00 0.00 57 813.3
20260504192705 44 55 22.6 26.9 0.00 0.00 0.00 57 813.3
20260504192555 44 56 20.9 25.2 0.00 0.00 0.00 56 813.4
20260504192445 44 53 23.5 26.1 0.00 0.00 0.00 56 813.3
20260504192335 44 55 23.5 27.8 0.00 0.00 0.00 56 813.3
20260504192225 44 48 23.5 28.7 0.00 0.00 0.00 56 813.3
20260504192115 44 50 23.5 27.8 0.00 0.00 0.00 56 813.1
20260504192005 44 55 20.0 25.2 0.00 0.00 0.00 56 813.3
20260504191856 44 53 24.3 28.7 0.00 0.00 0.00 56 813.3
20260504191745 44 56 22.6 27.8 0.00 0.00 0.00 56 813.3
20260504191635 44 57 20.9 26.9 0.00 0.00 0.00 56 813.3
20260504191525 44 55 23.5 26.1 0.00 0.00 0.00 55 813.3
20260504191415 44 61 22.6 26.1 0.00 0.00 0.00 55 813.3
20260504191155 44 54 23.5 26.9 0.00 0.00 0.00 55 813.1
20260504190935 44 55 25.2 33.9 0.00 0.00 0.00 56 813.0
20260504190825 44 52 24.3 29.5 0.00 0.00 0.00 55 813.3
20260504190605 44 55 23.5 27.8 0.00 0.00 0.00 54 813.1
20260504190455 45 55 24.3 27.8 0.00 0.00 0.00 54 813.1
20260504190345 45 56 24.3 27.8 0.00 0.00 0.00 54 813.1
20260504190235 44 53 26.1 29.5 0.00 0.00 0.00 54 813.1
20260504190125 44 56 26.9 31.3 0.00 0.00 0.00 54 813.1
20260504190015 44 55 25.2 30.4 0.00 0.00 0.00 54 813.1